Location: Praha
(50.0830°N, 14.4670°E)
Time: 14:41:19
(UTC+02:00)

ISS - Pass Details

Date: 05 May 2019
Orbit: 408 x 410 km, 51.6° (Epoch: 18 April)

Event Time Altitude Azimuth Distance (km) Brightness Sun altitude
Exits shadow 04:20:04 16° 226° (SW) 1,147 -2.2 -10.4°
Maximum altitude 04:22:27 50° 154° (SSE) 526 -3.4 -10.1°
Drops below altitude 10° 04:25:41 10° 78° (ENE) 1,476 0.1 -9.7°
Sets 04:27:48 0° 73° (ENE) 2,340 1.5 -9.5°
